This is the latest recevied weather packets stored in our database for station/object SR9NLI. If no packets are shown the sender has not sent any weather packets the latest 1 day(s).
| Time | Temp. | Humidity | Pressure | Rain* | Wind** | Luminosity | Snow |
|---|---|---|---|---|---|---|---|
| 1778014429 | 17.22° C | 100% | 949.8 hPa | - | 1.79 m/s, 169° | - | - |
| 1778014367 | 17.22° C | 100% | 949.8 hPa | - | 1.79 m/s, 169° | - | - |
| 1778014245 | 17.22° C | 100% | 949.7 hPa | - | 0.89 m/s, 172° | - | - |
| 1778014122 | 17.22° C | 100% | 949.8 hPa | - | 1.34 m/s, 180° | - | - |
| 1778014061 | 17.22° C | 100% | 949.8 hPa | - | 1.34 m/s, 171° | - | - |
| 1778014003 | 17.22° C | 100% | 949.8 hPa | - | 1.34 m/s, 173° | - | - |
| 1778013875 | 17.22° C | 100% | 949.8 hPa | - | 0.89 m/s, 186° | - | - |
| 1778013752 | 17.22° C | 100% | 949.8 hPa | - | 0.89 m/s, 205° | - | - |
| 1778013691 | 17.22° C | 100% | 949.8 hPa | - | 0.89 m/s, 190° | - | - |
| 1778013629 | 17.22° C | 100% | 949.8 hPa | - | 1.34 m/s, 191° | - | - |
| 1778013506 | 17.78° C | 100% | 949.8 hPa | - | 1.34 m/s, 188° | - | - |
| 1778013383 | 17.22° C | 100% | 949.8 hPa | - | 0.89 m/s, 189° | - | - |
| 1778013322 | 17.22° C | 100% | 949.7 hPa | - | 0.89 m/s, 189° | - | - |
| 1778013259 | 17.22° C | 100% | 949.8 hPa | - | 0.89 m/s, 187° | - | - |
| 1778013136 | 17.78° C | 100% | 949.7 hPa | - | 1.79 m/s, 177° | - | - |
| 1778013013 | 17.78° C | 100% | 949.9 hPa | - | 2.24 m/s, 176° | - | - |
| 1778012953 | 17.78° C | 100% | 949.8 hPa | - | 1.34 m/s, 180° | - | - |
| 1778012890 | 17.78° C | 100% | 949.9 hPa | - | 0.89 m/s, 182° | - | - |
| 1778012767 | 17.78° C | 100% | 949.8 hPa | - | 0.89 m/s, 172° | - | - |
| 1778012644 | 17.78° C | 100% | 949.8 hPa | - | 1.34 m/s, 178° | - | - |
| 1778012584 | 17.78° C | 100% | 949.8 hPa | - | 1.34 m/s, 183° | - | - |
| 1778012522 | 17.78° C | 100% | 949.9 hPa | - | 1.34 m/s, 183° | - | - |
| 1778012398 | 17.78° C | 100% | 949.8 hPa | - | 1.79 m/s, 174° | - | - |
| 1778012275 | 17.78° C | 100% | 949.8 hPa | - | 1.79 m/s, 173° | - | - |
| 1778012215 | 17.78° C | 100% | 949.9 hPa | - | 1.34 m/s, 174° | - | - |
* Rain since midnight (hover to see other rain measurements)
** Current wind speed in m/s (hover to see current wind gust speed)